Location: Grange Rosano
(44.4500°N, 6.9667°E)
Time: 12:20:37
(UTC+00:00)

USA 308 - Visible Passes

Search period start: 26 September 2022 00:00
Search period end: 06 October 2022 00:00
Orbit: 543 x 552 km, 54.0° (Epoch: 31 August)

Date Brightness Start Highest point End Pass type
(mag) Time Alt. Az. Time Alt. Az. Time Alt. Az.
26 Sep 5.2 02:54:45 15° SE 02:55:27 15° SE 02:57:52 10° E visible
26 Sep 2.8 04:30:22 11° SW 04:34:20 90° NW 04:38:30 10° NE visible
27 Sep 4.9 02:48:54 20° SE 02:48:54 20° SE 02:51:47 10° E visible
27 Sep 2.8 04:24:31 16° WSW 04:27:46 72° NNW 04:31:55 10° NE visible
28 Sep 4.8 02:42:57 24° ESE 02:42:57 24° ESE 02:45:30 10° ENE visible
28 Sep 3.0 04:18:33 20° WSW 04:21:13 58° NNW 04:25:19 10° NE visible
29 Sep 4.9 02:36:53 25° E 02:36:53 25° E 02:39:05 10° ENE visible
29 Sep 3.3 04:12:28 24° W 04:14:39 47° NNW 04:18:41 10° NE visible
30 Sep 5.0 02:30:44 24° ENE 02:30:44 24° ENE 02:32:35 10° ENE visible
30 Sep 3.6 04:06:20 26° WNW 04:08:05 40° NNW 04:12:01 10° NE visible
01 Oct 5.3 02:24:31 21° ENE 02:24:31 21° ENE 02:26:01 10° ENE visible
01 Oct 3.8 04:00:06 27° WNW 04:01:32 34° NNW 04:05:21 10° NE visible
02 Oct 5.5 02:18:14 18° ENE 02:18:14 18° ENE 02:19:23 10° ENE visible
02 Oct 4.0 03:53:49 26° NW 03:54:58 30° NNW 03:58:40 10° NE visible
03 Oct 5.7 02:11:54 15° NE 02:11:54 15° NE 02:12:43 10° NE visible
03 Oct 4.2 03:47:29 25° NW 03:48:24 27° NNW 03:51:59 10° NE visible
04 Oct 5.9 02:05:32 13° NE 02:05:32 13° NE 02:06:00 10° NE visible
04 Oct 4.3 03:41:06 24° NNW 03:41:50 25° NNW 03:45:18 10° NE visible
05 Oct 6.1 01:59:07 11° NE 01:59:07 11° NE 01:59:16 10° NE visible
05 Oct 4.4 03:34:41 23° NNW 03:35:15 23° N 03:38:37 10° NE visible
